Home > Weather > Odense > Past weeks

Flag for Denmark Past Weather in Odense, Denmark — Yesterday and Last 2 Weeks

Now
64 °F

Mild.


Feels Like: 64 °F
Forecast: 63 / 75 °F
Wind: 20 mph from East

Location: Soenderborg Lufthavn

Current Time: May 31, 2016 at 12:24:27 AM

Latest Report: May 30, 2016 at 11:50 PM


Visibility: N/A

Pressure: 29.83 "Hg

Humidity: 83%

Dew Point: 59 °F

Location of OdenseLocation

Past Weather in Odense — Graph

°F

Odense Temperature Yesterday

Maximum temperature yesterday: 72 °F (at 2:20 PM)
Minimum temperature yesterday: 61 °F (at 3:20 AM)
Average temperature yesterday: 66 °F

High & Low Weather Summary for the Past Weeks

 TemperatureHumidityPressure
High73 °F (May 22, 2:23 PM)100% (May 18, 2:50 AM)30.07 "Hg (May 18, 2:50 AM)
Low43 °F (May 18, 2:50 AM)46% (May 19, 4:20 PM)29.68 "Hg (May 22, 2:23 PM)
Average58 °F83%29.90 "Hg
* Reported May 15 11:20 PM — May 30 11:20 PM, Odense, Weather by CustomWeather, © 2016

Note: Actual official high and low records may vary slightly from our data, if they occured in-between our weather recording intervals... More about our weather records

Advertising

Odense Weather History for the Previous 24 Hours

Scroll right to see more
 ConditionsComfort  
Time TempWeatherWind HumidityBarometerVisibility
11:20 PM
Mon, May 30
64 °FMild.20 mph83%29.83 "HgN/A
10:50 PM64 °FMild.18 mph83%29.83 "HgN/A
10:20 PM64 °FSunny.20 mph83%29.83 "Hg10 mi
9:50 PM66 °FSunny.22 mph78%29.83 "Hg10 mi
9:20 PM66 °FSunny.24 mph78%29.83 "Hg10 mi
8:50 PM66 °FPartly sunny.24 mph78%29.80 "HgN/A
8:20 PM66 °FSunny.24 mph78%29.80 "Hg10 mi
7:50 PM68 °FSunny.23 mph73%29.80 "Hg10 mi
7:20 PM68 °FSunny.24 mph73%29.77 "Hg10 mi
6:50 PM70 °FSunny.25 mph69%29.77 "Hg10 mi
6:20 PM70 °FSunny.23 mph73%29.77 "Hg10 mi
5:50 PM70 °FSunny.25 mph69%29.77 "Hg10 mi
5:20 PM70 °FSunny.26 mph69%29.77 "Hg10 mi
4:50 PM70 °FSunny.24 mph69%29.77 "Hg10 mi
4:20 PM70 °FSunny.25 mph73%29.77 "Hg10 mi
3:20 PM70 °FSunny.24 mph73%29.77 "Hg10 mi
2:50 PM72 °FSunny.25 mph65%29.77 "Hg10 mi
2:20 PM72 °FSunny.23 mph69%29.77 "Hg10 mi
1:50 PM68 °FSunny.21 mph78%29.77 "Hg10 mi
1:20 PM68 °FPartly sunny.24 mph73%29.77 "HgN/A
12:50 PM68 °FPartly sunny.17 mph78%29.77 "HgN/A
12:20 PM68 °FPartly sunny.16 mph78%29.77 "HgN/A
11:50 AM68 °FPartly sunny.15 mph78%29.80 "HgN/A
11:20 AM66 °FPartly sunny.12 mph83%29.80 "HgN/A
10:50 AM64 °FPartly sunny.16 mph83%29.80 "HgN/A
10:20 AM64 °FPartly sunny.16 mph83%29.80 "HgN/A
9:50 AM64 °FPartly sunny.15 mph83%29.80 "HgN/A
9:20 AM66 °FSunny.16 mph78%29.77 "Hg10 mi
8:50 AM66 °FSunny.13 mph78%29.77 "Hg10 mi
8:20 AM66 °FSunny.13 mph73%29.77 "Hg10 mi
7:50 AM64 °FSunny.12 mph88%29.77 "Hg10 mi
7:20 AM64 °FSunny.12 mph88%29.77 "Hg10 mi
6:50 AM63 °FSunny.13 mph94%29.77 "Hg10 mi
6:20 AM63 °FSunny.15 mph88%29.77 "Hg10 mi
5:50 AM63 °FPassing clouds.16 mph88%29.77 "HgN/A
5:20 AM63 °FPassing clouds.15 mph88%29.77 "HgN/A
4:50 AM63 °FPartly cloudy.12 mph88%29.80 "HgN/A
4:20 AM63 °FPassing clouds.10 mph88%29.80 "HgN/A
3:50 AM63 °FPassing clouds.10 mph88%29.80 "HgN/A
3:20 AM61 °FPassing clouds.8 mph94%29.80 "HgN/A
2:50 AM63 °FPartly cloudy.8 mph88%29.80 "HgN/A
2:20 AM63 °FPartly cloudy.10 mph88%29.80 "HgN/A
1:50 AM63 °FPassing clouds.9 mph88%29.80 "HgN/A
1:20 AM63 °FPassing clouds.8 mph88%29.80 "HgN/A
12:50 AM63 °FPartly cloudy.7 mph88%29.83 "HgN/A
12:20 AM63 °FPassing clouds.9 mph88%29.80 "HgN/A
Weather by CustomWeather, © 2016

See weather overviewHow to use our weather pages